Location: George Washington National Forest Helicopter Landing Site
(38.6463°N, 79.0851°W)
Time: 05:44:34
(UTC-04:00)

Tiros 1 despin weight - Visible Passes

Search period start: 26 August 2019 00:00
Search period end: 05 September 2019 00:00
Orbit: 594 x 642 km, 48.2° (Epoch: 26 August)

Date Brightness Start Highest point End Pass type
(mag) Time Alt. Az. Time Alt. Az. Time Alt. Az.
26 Aug ? 04:01:24 35° N 04:02:21 40° NNE 04:06:41 10° E visible
26 Aug ? 05:39:37 10° WNW 05:44:02 52° SW 05:48:30 10° SE visible
26 Aug ? 21:27:45 10° S 21:27:49 10° S 21:27:49 10° S visible
27 Aug ? 04:18:30 55° NNW 04:19:08 63° NNE 04:23:41 10° ESE visible
27 Aug ? 05:56:39 10° WNW 06:00:28 26° SW 06:04:18 10° SSE visible
27 Aug ? 21:43:19 10° SSW 21:45:45 29° S 21:45:45 29° S visible
28 Aug ? 04:36:03 72° S 04:36:03 72° S 04:40:21 10° SE visible
28 Aug ? 20:20:40 10° SSE 20:23:00 14° SE 20:25:21 10° E visible
28 Aug ? 21:59:35 10° SW 22:03:19 63° SW 22:03:19 63° SW visible
29 Aug ? 04:53:58 28° S 04:53:58 28° S 04:56:32 10° SSE visible
29 Aug ? 20:35:31 10° SSW 20:39:19 29° SE 20:43:08 10° ENE visible
29 Aug ? 22:16:20 10° WSW 22:20:27 55° NW 22:20:27 55° NW visible
30 Aug ? 20:51:26 10° SW 20:55:45 58° SE 21:00:03 10° ENE visible
30 Aug ? 22:33:23 10° W 22:37:09 36° NNW 22:37:09 36° NNW visible
31 Aug ? 21:07:56 10° WSW 21:12:19 76° NNW 21:16:27 12° NE visible
31 Aug ? 22:50:35 10° WNW 22:53:33 26° NNW 22:53:33 26° NNW visible
01 Sep ? 21:24:49 10° W 21:29:03 45° NNW 21:32:37 14° NE visible
01 Sep ? 23:07:46 10° WNW 23:09:41 19° NW 23:09:41 19° NW visible
02 Sep ? 21:41:57 10° W 21:45:54 31° NNW 21:48:36 17° NE visible
02 Sep ? 23:24:48 10° NW 23:25:39 14° NW 23:25:39 14° NW visible
03 Sep ? 20:16:19 10° WSW 20:20:41 60° NNW 20:25:03 10° NE visible
03 Sep ? 21:59:09 10° WNW 22:02:51 25° N 22:04:28 20° NNE visible
04 Sep ? 20:33:20 10° W 20:37:27 38° NNW 20:41:36 10° NE visible
04 Sep ? 22:16:18 10° NW 22:19:52 23° N 22:20:15 23° N visible
